This is the latest recevied weather packets stored in our database for station/object IW5EIJ-10. If no packets are shown the sender has not sent any weather packets the latest 10 day(s).
| Time | Temp. | Humidity | Pressure | Rain* | Wind** | Luminosity | Snow |
|---|---|---|---|---|---|---|---|
| 1777657610 | 17.78° C | 15% | 1020.6 hPa | - | - | - | - |
| 1777655211 | 18.89° C | 15% | 1020.3 hPa | - | - | - | - |
| 1777654010 | 18.89° C | 14% | 1020.3 hPa | - | - | - | - |
| 1777652810 | 18.89° C | 13% | 1020.3 hPa | - | - | - | - |
| 1777651609 | 19.44° C | 13% | 1020.2 hPa | - | - | - | - |
| 1777650409 | 19.44° C | 13% | 1020.2 hPa | - | - | - | - |
| 1777648009 | 21.67° C | 15% | 1020.2 hPa | - | - | - | - |
| 1777646809 | 21.67° C | 15% | 1020.4 hPa | - | - | - | - |
| 1777645611 | 22.22° C | 14% | 1020.4 hPa | - | - | - | - |
| 1777644409 | 21.11° C | 14% | 1020.7 hPa | - | - | - | - |
| 1777643209 | 21.67° C | 16% | 1020.5 hPa | - | - | - | - |
| 1777642009 | 21.11° C | 18% | 1020.7 hPa | - | - | - | - |
| 1777640809 | 20.56° C | 22% | 1021 hPa | - | - | - | - |
| 1777639608 | 19.44° C | 24% | 1021 hPa | - | - | - | - |
| 1777638409 | 18.89° C | 24% | 1021.1 hPa | - | - | - | - |
| 1777637208 | 18.33° C | 24% | 1021.3 hPa | - | - | - | - |
| 1777636011 | 17.78° C | 23% | 1021.2 hPa | - | - | - | - |
| 1777634811 | 17.22° C | 21% | 1021.3 hPa | - | - | - | - |
| 1777633611 | 17.22° C | 21% | 1021.6 hPa | - | - | - | - |
| 1777632407 | 16.67° C | 21% | 1021.7 hPa | - | - | - | - |
| 1777631211 | 16.11° C | 21% | 1021.7 hPa | - | - | - | - |
| 1777630007 | 16.11° C | 23% | 1021.9 hPa | - | - | - | - |
| 1777628806 | 15.56° C | 22% | 1022 hPa | - | - | - | - |
| 1777627611 | 15.56° C | 25% | 1022.1 hPa | - | - | - | - |
| 1777626406 | 15.56° C | 27% | 1022.3 hPa | - | - | - | - |
* Rain since midnight (hover to see other rain measurements)
** Current wind speed in m/s (hover to see current wind gust speed)